Location: Kawakawa
(35.3830°S, 174.0670°E)
Time: 12:20:34
(UTC+12:00)

ISS - Visible Passes

Search period start: 17 May 2021 00:00
Search period end: 27 May 2021 00:00
Orbit: 417 x 422 km, 51.6° (Epoch: 16 May)

Date Brightness Start Highest point End Pass type
(mag) Time Alt. Az. Time Alt. Az. Time Alt. Az.
19 May -0.7 06:25:33 10° N 06:28:08 20° NE 06:30:43 10° E visible
20 May -0.3 05:39:47 10° NE 05:40:51 11° NE 05:41:54 10° ENE visible
21 May -3.4 06:26:24 10° NW 06:29:47 72° NE 06:33:13 10° SE visible
22 May -2.2 05:39:45 13° NNW 05:42:23 37° NE 05:45:36 10° ESE visible
23 May -1.0 04:55:42 19° ENE 04:55:42 19° ENE 04:57:40 10° E visible
23 May -3.0 06:28:44 11° WNW 06:31:41 34° SW 06:34:53 10° SSE visible
24 May -3.7 05:44:15 59° SSW 05:44:15 59° SSW 05:47:34 10° SE visible
25 May -0.8 04:59:28 15° SE 04:59:28 15° SE 05:00:07 10° SE visible
25 May -1.8 06:32:28 13° SW 06:33:50 15° SSW 06:35:59 10° S visible
26 May -1.7 05:47:27 18° S 05:47:27 18° S 05:48:56 10° SSE visible
